DELTA 1 DEB, 10649

Orbit data source: Space-Track

DELTA 1 DEB, 10649 is space debris in LEO originally from a launch on Thu, 29 Jul 1976 UTC launched from the Air Force Western Test Range (AFWTR). Debris objects in space refer to the collection of defunct objects orbiting the Earth. Examples of debris include non-operational satellites, rocket bodies, and fragments generated from explosions, collisions, or faulty payload assembly.

Loading next visibility...
Identifier
10649, 1976-077K
Orbit
LEO
Country
Flag of USUS
Related business
Manufacturer
Unknown
Mission
Spacecraft
Bus & Motor
Unknown
Mass
Unknown
Launch date (UTC)
1976-07-29 (50 years ago)
Launch vehicle
Unknown
Launch site
Air Force Western Test Range (AFWTR)
Object type
Payload
Rocket body
Debris
Shape & HBR
Unknown shape, 0.3 m
Radar Cross Section
Medium (>0.1 m² and <1 m²)

Expand to show TLE details & history
Last TLE update: 15 hours ago

TLE from 15 hours ago
0 DELTA 1 DEB
1 10649U 76077K   26255.60397087 -.00000064  00000-0 -30726-3 0  9990
2 10649 102.2884 172.8341 0376991 310.9253 169.6386 11.80282836146628
Epoch: 2026-09-12T14:29Z
TLE epoch observation values (Epoch: 2026-09-12T14:29:43.083Z)
Latitude
56.68457°
Longitude
163.05673°
Altitude
2,082.177 km
Speed
6.741 km/s
True Right ascension
00h 48m 23s
True Declination
56° 33' 05"
Sunlit
Object was in daylight at epoch
Visualization orbit readout
Latitude
Unknown
Longitude
Unknown
Altitude
Unknown
Speed
Unknown
Apparent Right ascension
Unknown
Apparent Declination
Unknown
Sunlit
N/A
Visualization observer readout
Local Sidereal Time
21:46:12
Azimuth
Unknown
Elevation
Unknown
Doppler factor
Unknown
Orbital elements
Apogee altitude
2,075.134 km
Perigee altitude
1,460.927 km
Semi-major axis
8,146.167 km
Eccentricity
0.0377
Inclination
102.2884°
RAAN
172.8341°
Arg. of periapsis
310.9253°
True anomaly
170.38108°
Mean anomaly
169.6386°
Eccentric anomaly
170.01319°
Mean motion
2.95198 °/min
Orbital period
121.95 mins
BSTAR
-0.00030726
Loading maneuver chart data...
Computing Atmospheric mass density...
Loading historical data...
Loading historical data...
Loading historical data...
Loading historical data...
Loading historical data...
Loading historical data...
Loading historical data...

Documentation

Showing up to 5 results
|